EXS99P EGGP-EGNV

Flight info

Callsign EXS99P
Flight time 0h 22m
Altitude 15000
Route POL P18 GASKO
Aircraft A21N/M-SDE3FGHIRWY/LB1

Departure

Time 2026-04-30 07:07
Airport Liverpool John Lennon Airport (EGGP)

Arrival

Time 2026-04-30 07:29
Airport Teesside International Airport (EGNV)
Time Latitude Longitude Altitude Speed Heading
2026-04-30 06:47 53.33646 -2.86164 91 ft 0 kts 355°
2026-04-30 07:00 53.33638 -2.86163 91 ft 2 kts 355°
2026-04-30 07:01 53.33623 -2.86161 91 ft 2 kts 355°
2026-04-30 07:01 53.33608 -2.86159 91 ft 1 kts 355°
2026-04-30 07:01 53.33599 -2.86158 91 ft 1 kts 338°
2026-04-30 07:01 53.33589 -2.86140 91 ft 2 kts 279°
2026-04-30 07:02 53.33590 -2.86129 91 ft 1 kts 261°
2026-04-30 07:02 53.33590 -2.86123 91 ft 0 kts 265°
2026-04-30 07:04 53.33589 -2.86138 91 ft 2 kts 265°
2026-04-30 07:04 53.33586 -2.86198 91 ft 6 kts 265°
2026-04-30 07:04 53.33568 -2.86273 91 ft 7 kts 229°
2026-04-30 07:04 53.33517 -2.86318 91 ft 9 kts 182°
2026-04-30 07:05 53.33462 -2.86447 91 ft 6 kts 265°
2026-04-30 07:05 53.33458 -2.86528 91 ft 7 kts 265°
2026-04-30 07:05 53.33452 -2.86627 91 ft 9 kts 265°
2026-04-30 07:06 53.33417 -2.86717 91 ft 10 kts 204°
2026-04-30 07:06 53.33342 -2.86718 91 ft 11 kts 155°
2026-04-30 07:06 53.33294 -2.86654 91 ft 9 kts 117°
2026-04-30 07:06 53.33290 -2.86531 91 ft 17 kts 85°
2026-04-30 07:07 53.33323 -2.85857 91 ft 109 kts 85°
2026-04-30 07:07 53.33411 -2.84223 610 ft 152 kts 85°
2026-04-30 07:07 53.33499 -2.82703 1979 ft 131 kts 87°
2026-04-30 07:07 53.33575 -2.81283 3048 ft 126 kts 89°
2026-04-30 07:08 53.33660 -2.79882 3825 ft 136 kts 81°
2026-04-30 07:08 53.34199 -2.78475 4595 ft 157 kts 40°
2026-04-30 07:08 53.35236 -2.77904 5433 ft 171 kts
2026-04-30 07:08 53.36475 -2.77920 6138 ft 189 kts 358°
2026-04-30 07:09 53.37817 -2.78089 6853 ft 206 kts 355°
2026-04-30 07:09 53.39308 -2.78271 7594 ft 224 kts 355°
2026-04-30 07:09 53.40931 -2.78426 8286 ft 248 kts 355°
2026-04-30 07:09 53.42709 -2.78559 9103 ft 268 kts 355°
2026-04-30 07:10 53.44628 -2.78683 9935 ft 288 kts 354°
2026-04-30 07:10 53.46668 -2.78807 10745 ft 307 kts 354°
2026-04-30 07:10 53.48888 -2.78641 11533 ft 331 kts
2026-04-30 07:10 53.51193 -2.77807 12325 ft 354 kts 17°
2026-04-30 07:11 53.53330 -2.75657 13340 ft 369 kts 39°
2026-04-30 07:11 53.54950 -2.72304 14257 ft 378 kts 61°
2026-04-30 07:11 53.55931 -2.68221 14903 ft 382 kts 74°
2026-04-30 07:11 53.56756 -2.63916 15252 ft 386 kts 72°
2026-04-30 07:12 53.57717 -2.59744 15314 ft 388 kts 67°
2026-04-30 07:12 53.58873 -2.55618 15316 ft 388 kts 63°
2026-04-30 07:12 53.60133 -2.51629 15317 ft 388 kts 61°
2026-04-30 07:12 53.61467 -2.47656 15316 ft 388 kts 60°
2026-04-30 07:13 53.62825 -2.43714 15313 ft 389 kts 59°
2026-04-30 07:13 53.64194 -2.39771 15310 ft 389 kts 59°
2026-04-30 07:13 53.65548 -2.35874 15307 ft 389 kts 59°
2026-04-30 07:13 53.66915 -2.31929 15303 ft 389 kts 60°
2026-04-30 07:14 53.68275 -2.27996 15302 ft 389 kts 60°
2026-04-30 07:14 53.69633 -2.24057 15300 ft 389 kts 60°
2026-04-30 07:14 53.70990 -2.20108 14916 ft 390 kts 60°
2026-04-30 07:14 53.72358 -2.16124 14387 ft 388 kts 60°
2026-04-30 07:15 53.73789 -2.12278 13865 ft 385 kts 50°
2026-04-30 07:15 53.75818 -2.09446 13367 ft 375 kts 24°
2026-04-30 07:15 53.78244 -2.08122 12986 ft 359 kts
2026-04-30 07:15 53.80671 -2.07420 12619 ft 351 kts
2026-04-30 07:16 53.83063 -2.06810 12209 ft 347 kts
2026-04-30 07:16 53.85431 -2.06198 11780 ft 344 kts
2026-04-30 07:16 53.87775 -2.05570 11332 ft 343 kts
2026-04-30 07:16 53.90101 -2.04901 10915 ft 339 kts
2026-04-30 07:17 53.92405 -2.04227 10654 ft 328 kts
2026-04-30 07:17 53.94594 -2.03583 10497 ft 314 kts
2026-04-30 07:17 53.98736 -2.02375 9974 ft 295 kts
2026-04-30 07:18 54.00733 -2.01801 9614 ft 290 kts
2026-04-30 07:18 54.02702 -2.01234 9255 ft 286 kts
2026-04-30 07:18 54.04655 -2.00670 8899 ft 282 kts
2026-04-30 07:18 54.06555 -2.00120 8556 ft 278 kts
2026-04-30 07:19 54.08450 -1.99570 8218 ft 273 kts
2026-04-30 07:19 54.10293 -1.99038 7908 ft 267 kts
2026-04-30 07:19 54.12091 -1.98509 7575 ft 263 kts
2026-04-30 07:19 54.13897 -1.97987 7240 ft 260 kts
2026-04-30 07:20 54.15670 -1.97474 6922 ft 256 kts
2026-04-30 07:20 54.17401 -1.96966 6612 ft 254 kts
2026-04-30 07:20 54.19125 -1.96463 6296 ft 251 kts
2026-04-30 07:20 54.20850 -1.95956 5984 ft 249 kts
2026-04-30 07:21 54.22494 -1.94988 5649 ft 253 kts 25°
2026-04-30 07:21 54.23875 -1.93162 5367 ft 253 kts 39°
2026-04-30 07:21 54.25179 -1.91018 5028 ft 251 kts 40°
2026-04-30 07:21 54.26399 -1.88918 4717 ft 248 kts 42°
2026-04-30 07:22 54.28746 -1.84668 4125 ft 241 kts 44°
2026-04-30 07:22 54.29870 -1.82568 3838 ft 238 kts 44°
2026-04-30 07:22 54.30973 -1.80489 3559 ft 234 kts 44°
2026-04-30 07:23 54.32024 -1.78495 3479 ft 222 kts 44°
2026-04-30 07:23 54.33038 -1.76567 3423 ft 209 kts 44°
2026-04-30 07:23 54.33975 -1.74785 3368 ft 196 kts 44°
2026-04-30 07:23 54.34858 -1.73109 3318 ft 185 kts 44°
2026-04-30 07:24 54.35723 -1.71473 3280 ft 184 kts 43°
2026-04-30 07:24 54.36575 -1.69868 3233 ft 184 kts 43°
2026-04-30 07:24 54.37442 -1.68236 3161 ft 183 kts 44°
2026-04-30 07:24 54.38291 -1.66636 3094 ft 183 kts 44°
2026-04-30 07:25 54.39159 -1.65003 3003 ft 183 kts 44°
2026-04-30 07:25 54.40008 -1.63407 2763 ft 184 kts 44°
2026-04-30 07:25 54.40863 -1.61797 2556 ft 181 kts 44°
2026-04-30 07:25 54.41713 -1.60201 2358 ft 179 kts 44°
2026-04-30 07:26 54.42554 -1.58621 2172 ft 178 kts 44°
2026-04-30 07:26 54.43353 -1.57118 2091 ft 163 kts 44°
2026-04-30 07:26 54.44094 -1.55727 1881 ft 150 kts 44°
2026-04-30 07:26 54.44769 -1.54461 1683 ft 139 kts 44°
2026-04-30 07:27 54.45395 -1.53289 1523 ft 129 kts 44°
2026-04-30 07:27 54.46000 -1.52157 1362 ft 129 kts 44°
2026-04-30 07:27 54.46604 -1.51026 1195 ft 128 kts 45°
2026-04-30 07:27 54.47205 -1.49898 1023 ft 128 kts 45°
2026-04-30 07:28 54.47797 -1.48788 853 ft 123 kts 45°
2026-04-30 07:28 54.48370 -1.47714 680 ft 120 kts 45°
2026-04-30 07:28 54.48927 -1.46671 523 ft 119 kts 45°
2026-04-30 07:28 54.49486 -1.45622 367 ft 119 kts 46°
2026-04-30 07:29 54.50050 -1.44566 209 ft 119 kts 46°
2026-04-30 07:29 54.50583 -1.43568 129 ft 102 kts 46°
2026-04-30 07:29 54.50944 -1.42894 129 ft 46 kts 47°
2026-04-30 07:29 54.51043 -1.42716 129 ft 7 kts 27°
2026-04-30 07:30 54.51058 -1.42834 129 ft 8 kts 270°
2026-04-30 07:30 54.51059 -1.42948 129 ft 10 kts 270°
2026-04-30 07:30 54.51060 -1.43052 129 ft 7 kts 274°
2026-04-30 07:31 54.51066 -1.43126 129 ft 4 kts 287°
2026-04-30 07:31 54.51087 -1.43159 129 ft 1 kts 349°
2026-04-30 07:31 54.51104 -1.43154 129 ft 3 kts 18°
2026-04-30 07:31 54.51129 -1.43131 129 ft 4 kts 29°
2026-04-30 07:32 54.51164 -1.43108 129 ft 6 kts
2026-04-30 07:32 54.51186 -1.43109 129 ft 0 kts 346°
2026-04-30 07:32 54.51190 -1.43112 129 ft 0 kts 321°
2026-04-30 07:32 54.51190 -1.43120 129 ft 0 kts 259°
2026-04-30 07:33 54.51186 -1.43125 129 ft 1 kts 204°
2026-04-30 07:33 54.51185 -1.43126 129 ft 0 kts 203°